Weather History for KTVC - February, 2014

Change the Weather History Date:

Sunday, February 16, 2014

  Actual Average Record
Temperature  
Mean Temperature 6 °F 23 °F  
Max Temperature 17 °F 31 °F 54 °F (1921)
Min Temperature -5 °F 15 °F -23 °F (1979)
Degree Days  
Heating Degree Days 59 42  
Month to date heating degree days 834 693  
Since 1 July heating degree days 5138 4849  
Moisture  
Dew Point 7 °F    
Average Humidity 77    
Maximum Humidity 92    
Minimum Humidity 61    
Precipitation  
Precipitation 0.05 in 0.05 in 0.24 in (1990)
Month to date precipitation 0.14 0.87  
Year to date precipitation 1.13 3.69  
Snow  
Snow 0.00 in - - ()
Snow Depth 25.00 in    
Sea Level Pressure  
Sea Level Pressure 30.09 in    
Wind  
Wind Speed 5 mph (NE)    
Max Wind Speed 13 mph    
Max Gust Speed 15 mph    
Visibility 5 miles    
Events Snow    
T = Trace of Precipitation, MM = Missing Value Source: NWS Daily Summary

Daily Weather History Graph

Daily Weather History Graph

Search for Another Location

Airport or City:

Trip Planner

Search our weather history database for the weather conditions in past years. The results will help you decide how hot, cold, wet, or windy it might be!

Date:

Astronomy

Feb. 16, 2014 Rise Set
Actual Time 7:41 AM EST 6:12 PM EST
Civil Twilight 7:11 AM EST 6:42 PM EST
Nautical Twilight 6:37 AM EST 7:16 PM EST
Astronomical Twilight 6:03 AM EST 7:50 PM EST
Moon 8:15 PM EST (2/16) 8:04 AM EST (2/16)
Length of Visible Light 11h 30m
Length of Day
10h 31m
Full, 97% of the Moon is Illuminated
Feb 16
Full
Feb 22
Last Quarter
Mar 1
New
Mar 8
First Quarter
Mar 16
Full

Hourly Weather History & Observations

Time (EST) Temp. Windchill Dew Point Humidity Pressure Visibility Wind Dir Wind Speed Gust Speed Precip Events Conditions
12:53 AM 15.1 °F - 6.1 °F 68% 29.99 in 9.0 mi Calm Calm - N/A   Overcast
1:24 AM 15.1 °F 7.7 °F 8.1 °F 74% 29.94 in 1.8 mi East 4.6 mph - 0.00 in Snow Light Snow
1:32 AM 14.0 °F 8.2 °F 8.1 °F 77% 29.94 in 2.0 mi East 3.5 mph - 0.00 in Snow Light Snow
1:41 AM 14.0 °F 5.1 °F 9.0 °F 80% 29.94 in 1.5 mi East 5.8 mph - 0.00 in Snow Light Snow
1:53 AM 14.0 °F 8.2 °F 9.0 °F 80% 29.98 in 1.2 mi East 3.5 mph - 0.00 in Snow Light Snow
2:23 AM 14.0 °F - 10.0 °F 84% 29.94 in 0.8 mi Calm Calm - 0.00 in Snow Light Snow
2:53 AM 14.0 °F - 10.9 °F 88% 29.98 in 1.0 mi Calm Calm - 0.01 in Snow Light Snow
3:07 AM 14.0 °F 8.2 °F 10.9 °F 88% 29.94 in 0.8 mi NNE 3.5 mph - 0.01 in Snow Light Snow
3:48 AM 14.0 °F 5.1 °F 10.4 °F 86% 29.95 in 1.0 mi NNE 5.8 mph - 0.02 in Snow Light Snow
3:53 AM 14.0 °F 3.9 °F 10.9 °F 88% 29.99 in 1.0 mi NE 6.9 mph - 0.02 in Snow Light Snow
4:40 AM 14.0 °F 5.1 °F 10.0 °F 84% 29.95 in 0.8 mi NE 5.8 mph - 0.01 in Snow Light Snow
4:50 AM 14.0 °F 5.1 °F 10.4 °F 86% 29.95 in 1.0 mi NE 5.8 mph - 0.01 in Snow Light Snow
4:53 AM 14.0 °F 3.9 °F 10.0 °F 84% 29.98 in 1.0 mi NE 6.9 mph - 0.01 in Snow Light Snow
5:02 AM 14.0 °F 3.9 °F 10.9 °F 88% 29.95 in 0.8 mi NE 6.9 mph - 0.00 in Snow Light Snow
5:11 AM 14.0 °F 5.1 °F 10.9 °F 88% 29.95 in 1.0 mi NE 5.8 mph - 0.00 in Snow Light Snow
5:50 AM 14.0 °F 5.1 °F 10.4 °F 86% 29.96 in 2.0 mi NNE 5.8 mph - 0.00 in Snow Light Snow
5:53 AM 14.0 °F 5.1 °F 10.9 °F 88% 30.00 in 2.0 mi NNE 5.8 mph - 0.00 in Snow Light Snow
6:02 AM 14.0 °F 3.9 °F 10.9 °F 88% 29.97 in 2.0 mi NNE 6.9 mph - 0.00 in Snow Light Snow
6:18 AM 14.0 °F 3.9 °F 10.9 °F 88% 29.97 in 4.0 mi NNE 6.9 mph - 0.00 in Snow Light Snow
6:37 AM 14.0 °F 3.9 °F 10.9 °F 88% 29.97 in 2.0 mi NNE 6.9 mph - 0.00 in Snow Light Snow
6:53 AM 14.0 °F 3.9 °F 10.9 °F 88% 30.01 in 2.5 mi NNE 6.9 mph - 0.00 in Snow Light Snow
7:06 AM 14.0 °F 5.1 °F 10.9 °F 88% 29.98 in 4.0 mi NNE 5.8 mph - 0.00 in Snow Light Snow
7:53 AM 12.9 °F 3.8 °F 10.0 °F 88% 30.05 in 4.0 mi NNE 5.8 mph - 0.00 in Snow Light Snow
8:53 AM 10.0 °F - 7.0 °F 87% 30.10 in 10.0 mi Calm Calm - 0.01 in   Overcast
9:46 AM 10.9 °F 4.7 °F 7.0 °F 84% 30.09 in 6.0 mi WNW 3.5 mph - N/A   Overcast
9:53 AM 12.9 °F 5.2 °F 8.1 °F 81% 30.13 in 8.0 mi Variable 4.6 mph - N/A   Overcast
10:53 AM 12.9 °F 1.6 °F 7.0 °F 77% 30.16 in 5.0 mi North 8.1 mph - 0.00 in Snow Light Snow
11:22 AM 12.9 °F 5.2 °F 8.1 °F 81% 30.13 in 9.0 mi NNW 4.6 mph - 0.00 in   Mostly Cloudy
11:53 AM 15.1 °F 5.2 °F 7.0 °F 70% 30.18 in 10.0 mi North 6.9 mph - 0.00 in   Mostly Cloudy
12:53 PM 16.0 °F 5.3 °F 8.1 °F 71% 30.19 in 10.0 mi North 8.1 mph - N/A   Mostly Cloudy
1:53 PM 17.1 °F 5.0 °F 8.1 °F 68% 30.19 in 10.0 mi North 10.4 mph - N/A   Scattered Clouds
2:53 PM 17.1 °F 5.0 °F 7.0 °F 65% 30.22 in 10.0 mi North 10.4 mph - N/A   Scattered Clouds
3:53 PM 16.0 °F 3.6 °F 6.1 °F 65% 30.25 in 10.0 mi North 10.4 mph - N/A   Partly Cloudy
4:53 PM 14.0 °F 6.5 °F 3.9 °F 64% 30.28 in 10.0 mi NNE 4.6 mph - N/A   Partly Cloudy
5:53 PM 12.9 °F 3.8 °F 1.9 °F 62% 30.30 in 10.0 mi NE 5.8 mph - N/A   Partly Cloudy
6:53 PM 7.0 °F 0.1 °F -0.0 °F 73% 30.34 in 10.0 mi East 3.5 mph - N/A   Partly Cloudy
7:53 PM 3.9 °F - -0.0 °F 84% 30.34 in 10.0 mi Calm Calm - N/A   Clear
8:53 PM -0.0 °F - -5.1 °F 79% 30.36 in 10.0 mi Calm Calm - N/A   Clear
9:53 PM -2.0 °F - -6.0 °F 83% 30.36 in 10.0 mi Calm Calm - N/A   Clear
10:53 PM -4.0 °F - -9.0 °F 79% 30.35 in 10.0 mi Calm Calm - N/A   Clear
11:53 PM -4.0 °F - -8.0 °F 83% 30.37 in 10.0 mi Calm Calm - N/A   Clear